This is the latest recevied weather packets stored in our database for station/object KI4HRG. If no packets are shown the sender has not sent any weather packets the latest 10 day(s).
| Time | Temp. | Humidity | Pressure | Rain* | Wind** | Luminosity | Snow |
|---|---|---|---|---|---|---|---|
| 1777990898 | 20.56° C | 69% | 1015.2 hPa | 0 mm | - | 611 W/m² | - |
| 1777990595 | 20.56° C | 70% | 1015.4 hPa | 0 mm | - | 581 W/m² | - |
| 1777989988 | 20° C | 69% | 1015.2 hPa | 0 mm | - | 534 W/m² | - |
| 1777989685 | 20° C | 70% | 1015.2 hPa | 0 mm | - | 536 W/m² | - |
| 1777989380 | 19.44° C | 71% | 1015.1 hPa | 0 mm | - | 505 W/m² | - |
| 1777989078 | 19.44° C | 71% | 1015.3 hPa | 0 mm | - | 494 W/m² | - |
| 1777988773 | 19.44° C | 71% | 1015.1 hPa | 0 mm | - | 454 W/m² | - |
| 1777988471 | 18.89° C | 72% | 1015 hPa | 0 mm | - | 347 W/m² | - |
| 1777988168 | 18.89° C | 73% | 1015 hPa | 0 mm | - | 399 W/m² | - |
| 1777987863 | 18.33° C | 74% | 1014.9 hPa | 0 mm | - | 249 W/m² | - |
| 1777987560 | 18.33° C | 75% | 1014.8 hPa | 0 mm | - | 273 W/m² | - |
| 1777987258 | 18.33° C | 74% | 1015.1 hPa | 0 mm | - | 365 W/m² | - |
| 1777986954 | 17.78° C | 75% | 1015 hPa | 0 mm | - | 328 W/m² | - |
| 1777986653 | 17.78° C | 75% | 1014.8 hPa | 0 mm | - | 277 W/m² | - |
| 1777986350 | 17.78° C | 77% | 1014.7 hPa | 0 mm | - | 254 W/m² | - |
| 1777986048 | 17.78° C | 76% | 1014.6 hPa | 0 mm | - | 254 W/m² | - |
| 1777985744 | 17.22° C | 77% | 1014.7 hPa | 0 mm | - | 229 W/m² | - |
| 1777985441 | 17.22° C | 77% | 1014.6 hPa | 0 mm | - | 223 W/m² | - |
| 1777985138 | 17.78° C | 76% | 1014.4 hPa | 0 mm | - | 216 W/m² | - |
| 1777984834 | 17.22° C | 77% | 1014.2 hPa | 0 mm | - | 181 W/m² | - |
| 1777984531 | 17.22° C | 78% | 1014.1 hPa | 0 mm | - | 163 W/m² | - |
| 1777984227 | 17.22° C | 77% | 1014.2 hPa | 0 mm | - | 152 W/m² | - |
| 1777983924 | 16.67° C | 79% | 1014.1 hPa | 0 mm | - | 142 W/m² | - |
| 1777983621 | 16.67° C | 78% | 1013.9 hPa | 0 mm | - | 124 W/m² | - |
| 1777983317 | 16.11° C | 83% | 1013.9 hPa | 0 mm | - | 115 W/m² | - |
* Rain latest hour (hover to see other rain measurements)
** Current wind speed in m/s (hover to see current wind gust speed)